Location: Bacharowice
(49.9333°N, 19.5833°E)
Time: 22:49:49
(UTC+00:00)

SPOT 5 - Pass Details

Date: 11 May 2021
Orbit: 623 x 815 km, 98.2° (Epoch: 18 June)

Event Time Altitude Azimuth Distance (km) Brightness Sun altitude
Exits shadow 19:59:16 19° 153° (SSE) 1,765 4.3 -13.5°
Maximum altitude 20:02:58 72° 72° (ENE) 830 3.1 -13.8°
Drops below altitude 10° 20:08:16 10° 349° (N) 2,399 6.6 -14.4°
Sets 20:10:39 0° 348° (NNW) 3,345 7.6 -14.6°
